Theta_e
312 312 312 311 313 318 322 323 323 323 323 324 322 320 320 320 318 317 313 311 311 310 307 304 303 302 302 301 301 301 301 301 301 300 299 298 298 299 298 297 297 296 296 296 295 295 295 294 294 294 293 293 293 293 293 293 293 293 292 292 292 291 291 291 290 291 293 294 293 294 293 293 293 292 292 292 293 293 292 291 291 290 289 288 287
311 310 312 314 316 318 320 321 321 322 322 322 322 320 319 319 317 314 311 311 311 307 304 303 302 301 301 300 300 300 301 301 300 299 298 299 299 299 298 297 296 296 296 296 295 295 295 294 293 293 293 293 293 292 293 292 292 292 292 292 292 291 290 290 290 290 292 294 294 294 293 292 292 292 291 290 291 291 291 291 290 289 289 287 286
311 312 314 318 319 319 320 321 321 321 321 321 320 319 319 318 315 311 311 311 308 304 302 302 301 301 300 300 300 300 300 300 299 299 300 300 299 298 297 296 296 296 296 295 295 295 294 294 293 293 293 292 292 292 292 292 292 292 292 292 291 291 290 290 290 290 291 292 293 293 293 293 292 291 290 290 289 289 289 289 288 288 288 287 286
315 316 317 318 318 318 320 321 320 320 319 319 319 318 317 315 312 311 311 309 305 303 302 301 300 300 300 300 300 300 300 299 299 300 300 299 298 297 297 296 296 296 296 295 295 295 294 293 293 293 292 292 292 292 292 292 292 292 292 291 291 291 291 290 289 289 289 290 292 293 292 291 291 291 289 289 288 288 287 287 287 286 286 286 286
317 319 319 318 318 317 318 318 318 318 317 318 318 317 314 311 311 311 309 306 303 302 301 300 300 299 299 299 300 300 299 300 301 300 299 298 297 297 296 296 296 296 295 295 295 294 293 293 292 292 292 292 292 292 292 292 292 292 291 291 291 291 291 290 289 289 289 289 290 292 291 290 290 290 288 287 287 287 286 286 286 286 286 286 286
315 316 316 317 317 317 317 317 317 317 317 317 316 313 311 311 311 309 306 303 302 301 301 300 300 299 299 299 299 299 300 301 300 300 298 298 297 297 296 296 296 295 295 295 294 293 293 292 292 292 292 292 292 292 292 292 291 291 291 291 291 290 290 290 289 289 288 288 288 289 290 289 288 288 288 285 285 285 285 285 286 286 286 286 286
311 312 312 313 314 314 315 315 316 316 316 315 312 311 311 311 309 307 304 301 301 301 300 300 299 299 299 299 299 299 300 300 300 299 298 297 297 296 296 296 295 295 295 294 293 293 292 292 292 292 291 291 291 291 291 291 291 291 291 290 290 290 289 289 289 288 288 288 287 287 288 287 286 286 286 286 285 285 284 284 285 286 285 285 285
310 311 312 312 312 313 314 315 315 315 314 312 311 311 310 309 307 304 302 300 300 300 299 299 298 298 299 299 299 299 300 300 299 299 298 297 297 296 296 296 295 295 294 293 293 292 292 291 291 291 291 291 291 291 291 290 290 290 290 290 289 289 289 288 288 288 287 287 287 286 286 286 286 285 285 285 285 285 285 283 283 284 284 284 284
312 312 313 313 312 313 313 314 313 312 311 311 310 310 309 308 305 302 301 300 299 299 298 298 298 298 298 299 299 299 299 299 299 298 297 297 296 296 296 295 295 294 294 293 292 292 291 291 291 291 291 291 290 290 290 290 290 290 289 289 289 288 288 288 288 287 287 287 286 285 285 285 285 284 284 285 284 284 284 283 283 283 283 284 284
313 313 313 313 313 313 313 312 311 311 311 310 310 310 308 306 303 301 300 300 299 298 298 297 297 298 298 299 299 299 299 299 298 298 297 296 296 296 295 295 295 294 294 293 292 292 291 291 291 291 290 290 290 290 290 290 289 289 289 289 288 288 288 288 287 287 286 286 286 284 284 285 285 284 283 284 284 283 283 283 283 283 283 284 284
312 312 312 312 312 312 311 311 311 311 311 310 310 309 306 304 301 301 300 299 299 298 297 297 297 297 298 299 299 299 299 299 298 297 297 296 296 295 295 295 294 294 293 293 292 291 291 291 290 290 290 290 290 290 290 289 289 289 289 288 288 288 287 287 287 286 285 285 285 284 283 283 284 284 283 283 283 282 283 283 283 283 284 284 284
312 312 312 311 311 311 311 311 311 311 310 310 309 307 304 302 300 300 299 299 298 297 297 297 297 297 298 299 299 299 299 298 298 297 297 296 295 295 295 294 294 294 293 292 292 291 291 290 290 290 290 290 290 289 289 289 289 289 288 288 288 287 287 286 286 285 285 284 284 284 283 283 283 283 283 282 282 282 283 283 283 283 283 283 284
311 312 311 311 311 311 311 311 311 311 310 309 308 305 302 301 300 299 299 298 297 297 297 296 297 297 298 299 299 299 298 298 297 297 296 295 295 295 294 294 294 293 293 292 291 291 290 290 290 290 290 289 289 289 289 289 289 289 288 288 287 287 287 286 285 284 284 283 283 284 284 282 282 282 282 282 282 282 282 283 283 283 283 283 284
311 312 311 311 311 311 311 311 310 310 310 308 306 303 301 300 299 298 298 297 297 297 296 296 297 298 298 298 298 298 297 297 296 296 295 295 295 294 294 294 293 293 292 291 291 290 290 290 290 289 289 289 289 289 289 289 289 288 288 288 287 287 287 286 285 284 284 283 282 283 283 282 282 282 282 281 282 282 282 283 283 283 283 283 283
311 311 311 311 311 311 311 311 310 310 309 307 305 302 300 299 298 298 297 297 296 296 296 296 297 298 298 298 297 297 297 296 295 295 295 294 294 294 294 294 293 292 292 291 290 290 289 289 289 289 289 289 289 288 288 288 288 288 288 287 287 287 287 286 285 285 284 283 282 282 282 282 282 282 281 281 282 282 282 282 282 282 282 283 283
311 311 311 311 311 311 310 310 310 309 308 307 304 301 299 298 298 297 297 296 296 295 295 296 297 297 297 297 297 296 296 295 295 295 295 294 294 294 294 293 293 292 291 290 290 289 289 289 289 289 289 288 288 288 288 288 288 288 288 287 287 287 286 286 285 285 284 283 283 283 283 283 283 282 281 281 281 282 282 282 281 281 281 281 281
311 311 311 311 311 311 310 310 310 309 308 306 303 300 298 297 297 297 297 296 295 295 295 296 297 297 297 297 296 295 295 294 294 294 294 294 294 294 294 293 293 292 291 290 289 289 289 289 289 288 288 288 288 287 287 287 287 287 287 287 287 287 287 286 286 285 284 283 283 283 283 283 283 282 281 281 281 281 281 280 280 280 279 279 280
311 311 311 311 310 310 310 310 309 308 307 305 302 300 298 297 297 296 296 295 295 295 295 296 297 297 296 296 295 294 294 294 294 294 294 294 294 294 294 293 292 292 290 289 289 289 289 288 288 288 288 287 287 287 287 287 287 287 287 287 287 287 287 287 287 286 285 284 284 283 283 283 283 283 282 281 280 280 279 278 279 278 278 278 278
311 311 311 310 310 310 310 309 309 308 307 304 301 299 297 297 296 296 295 294 294 295 295 296 296 296 296 295 294 294 293 293 294 294 295 295 295 294 293 293 292 291 290 289 289 288 288 288 288 288 287 287 287 287 286 286 286 286 286 286 287 287 287 286 286 286 286 285 284 284 284 284 284 284 283 283 282 281 279 278 278 278 278 278 278
311 310 310 310 310 310 309 309 308 307 305 303 300 298 297 296 296 295 295 294 294 295 295 295 296 295 294 294 293 293 292 293 295 296 296 296 295 294 293 292 292 290 289 289 288 288 288 288 287 287 287 287 286 286 286 285 285 285 285 286 286 286 286 285 285 284 284 284 284 284 284 284 284 284 283 283 283 282 280 279 278 278 278 278 278
310 310 310 310 310 309 309 308 308 306 304 301 299 297 296 296 295 295 294 294 294 295 295 295 295 294 294 293 292 292 293 295 297 298 297 296 294 293 292 292 291 290 289 288 288 288 288 288 287 287 287 286 286 285 285 285 285 285 285 285 285 284 284 284 284 284 284 284 284 284 284 284 284 284 283 283 283 282 281 280 279 278 278 278 278
309 309 309 309 309 308 308 308 307 305 302 299 297 296 296 295 295 294 294 294 294 295 295 295 294 293 293 292 291 292 295 298 299 298 297 295 293 292 291 291 290 289 288 288 288 288 287 287 287 287 286 286 285 285 285 285 285 285 284 284 284 284 283 283 283 283 283 283 283 284 284 284 284 284 284 283 282 281 281 281 280 279 279 279 278
309 308 308 308 308 308 307 307 306 304 301 298 296 296 295 295 294 294 294 294 294 294 294 294 293 292 292 291 291 295 298 300 299 298 296 294 292 291 291 290 289 288 288 288 288 287 287 287 287 286 286 285 285 284 284 284 284 284 284 283 283 283 283 283 283 283 283 283 283 283 284 283 283 283 283 283 282 281 281 281 280 280 280 279 279
308 308 308 307 307 307 307 306 305 303 300 297 295 295 294 294 294 293 293 293 293 293 293 293 292 292 291 291 294 298 300 300 299 298 295 292 291 290 290 289 288 288 288 287 287 287 287 286 286 286 285 285 285 284 284 284 284 284 283 283 283 283 282 283 283 283 283 283 283 283 283 283 282 282 282 282 281 281 281 281 281 281 280 280 279
308 308 307 307 307 306 306 305 305 302 298 296 295 294 294 294 294 293 294 293 293 293 292 292 292 291 290 292 297 300 300 300 299 296 293 291 290 290 289 288 288 287 287 287 287 287 286 286 285 285 285 285 284 284 284 284 284 283 283 283 283 283 282 282 282 282 282 282 282 282 282 282 282 282 281 281 281 281 281 281 281 281 281 281 280
307 307 307 306 306 306 305 305 304 301 297 295 294 294 294 294 294 294 293 293 293 292 291 291 291 290 291 295 299 300 299 299 297 294 291 290 289 289 289 288 287 287 287 287 287 286 286 286 285 285 285 284 284 284 284 284 284 283 283 283 282 282 282 282 282 282 282 282 282 282 282 282 282 282 281 281 281 281 281 281 281 281 281 281 280
307 306 306 306 305 305 305 304 303 301 297 295 294 293 293 293 293 293 293 293 292 292 291 291 290 290 294 298 299 299 299 298 294 291 290 289 289 288 288 287 287 287 287 286 286 286 286 285 285 285 284 284 284 284 284 284 284 283 283 283 282 282 282 282 282 282 282 282 282 282 283 282 282 282 282 282 282 282 281 281 281 280 280 280 280
306 306 306 305 305 305 304 304 303 300 297 295 294 294 293 293 293 292 292 292 292 292 292 291 290 292 296 299 299 299 298 295 291 289 289 288 288 288 287 287 287 286 286 286 286 286 286 285 285 284 284 283 283 284 284 284 284 283 283 283 282 282 281 281 281 282 282 282 282 282 283 282 282 282 282 282 282 281 281 281 280 280 280 280 279
306 306 305 305 305 304 304 303 302 300 297 295 294 293 293 293 292 292 291 291 291 291 291 290 291 294 297 298 298 298 295 291 289 288 288 288 288 287 287 287 286 286 286 286 286 286 285 285 284 284 283 283 283 283 284 284 284 283 283 282 282 282 281 281 281 282 282 282 282 282 282 282 282 282 282 282 282 281 281 280 280 280 279 279 278
306 305 305 305 304 303 303 302 301 299 296 294 293 293 293 292 292 291 291 290 290 290 289 289 292 296 298 298 297 294 290 288 288 288 288 287 287 287 287 286 286 286 286 286 286 285 285 284 284 283 283 283 283 283 283 284 284 283 283 282 282 281 281 281 281 281 282 282 282 282 282 282 282 282 282 282 282 281 281 280 280 279 280 279 279
305 305 304 304 304 303 302 302 300 298 296 294 293 292 292 292 291 290 290 290 290 289 289 291 294 297 297 296 294 290 288 288 288 288 287 287 287 286 286 286 286 286 285 285 285 285 284 284 283 283 283 283 283 283 283 283 283 283 283 282 282 281 281 281 281 281 282 282 282 282 282 281 281 281 282 282 281 281 281 280 280 280 280 279 279
304 304 303 303 303 302 301 300 299 297 295 293 292 292 291 291 291 290 290 290 290 289 289 292 294 295 293 291 289 288 287 288 287 287 287 287 286 286 286 286 286 285 285 285 285 284 284 283 283 283 283 283 282 282 283 283 283 283 283 282 281 281 280 280 281 281 281 282 282 283 282 282 281 281 281 281 281 281 280 280 280 280 280 279 279
302 302 302 302 301 301 300 300 298 297 294 293 292 292 291 291 291 291 290 290 290 290 290 292 293 292 290 288 288 287 287 287 287 287 287 286 286 286 285 285 285 285 284 285 284 284 283 283 282 283 282 282 282 282 282 282 282 282 282 282 281 280 280 280 280 281 281 282 282 282 283 282 281 280 281 281 281 281 280 280 280 280 280 280 279
301 301 301 301 300 300 299 299 298 296 295 293 292 291 291 291 291 291 290 290 290 290 291 291 291 290 289 288 288 287 287 287 287 287 286 286 286 285 285 285 285 284 284 284 284 283 283 282 282 282 282 282 282 282 282 282 282 282 282 281 280 280 280 280 280 280 281 281 282 282 282 282 281 280 281 281 282 281 280 280 280 280 280 280 279
301 301 301 300 300 299 298 297 297 296 294 292 291 291 291 291 291 290 290 290 290 290 290 290 290 289 289 288 287 287 287 287 286 286 286 285 285 285 285 285 284 284 284 284 283 283 282 282 282 282 281 281 281 281 281 281 281 281 281 281 280 280 279 279 280 280 280 281 281 282 282 282 281 281 280 281 281 282 281 280 280 280 280 280 280
301 301 300 300 299 298 297 297 296 295 294 292 291 290 290 290 290 290 290 290 289 289 289 289 289 288 288 287 287 287 286 286 286 286 285 285 284 285 285 285 284 284 284 284 283 282 282 282 281 281 281 281 281 281 281 281 281 281 281 280 280 279 279 279 279 279 280 280 281 281 281 281 281 281 281 281 281 281 281 280 279 280 280 280 280
301 300 300 299 299 298 297 296 295 294 293 292 290 290 289 289 289 289 289 289 289 288 288 288 288 288 287 287 287 286 286 285 285 285 285 284 284 285 285 284 284 284 283 283 282 282 281 281 281 281 280 280 280 280 280 280 280 280 280 280 279 279 279 279 279 279 279 280 280 280 281 281 281 281 281 281 281 281 281 280 279 279 280 280 280
300 300 300 299 299 298 296 296 294 293 292 291 290 289 289 289 289 288 288 288 288 288 288 288 287 287 287 287 286 285 285 285 285 284 284 284 284 284 284 284 283 283 283 282 282 281 281 281 281 280 280 279 280 280 280 280 280 280 280 280 279 279 278 278 278 278 278 279 279 280 280 280 281 281 281 281 281 281 281 280 280 279 280 280 280
298 299 299 299 299 298 297 296 294 293 292 291 290 289 288 288 288 288 288 288 287 287 287 287 287 287 287 286 285 285 285 285 284 284 284 284 284 285 284 283 283 282 282 281 281 281 280 280 280 279 279 279 279 279 279 279 279 279 279 279 279 278 278 278 278 278 278 278 279 279 279 280 280 280 280 281 281 281 281 281 280 280 279 280 279
296 297 298 298 298 298 297 296 295 294 292 291 290 289 289 288 288 288 288 287 287 287 287 287 287 286 286 285 285 284 284 284 284 284 284 284 285 285 284 283 282 282 281 281 280 280 280 280 279 278 278 278 278 278 278 278 278 278 279 279 279 278 278 278 278 278 278 278 278 278 279 279 279 280 280 280 280 281 281 281 281 280 280 279 279
294 295 295 296 297 297 297 296 296 294 293 291 290 289 288 288 288 288 287 287 287 287 286 286 286 285 285 284 284 284 284 283 283 283 284 285 285 284 283 282 282 281 281 280 280 279 279 279 278 278 277 277 277 277 277 277 277 277 277 278 278 278 278 278 278 278 277 277 277 277 278 278 278 279 279 279 280 280 280 280 281 280 280 279 279
293 293 294 294 295 295 296 296 295 294 292 291 290 289 288 287 287 287 287 286 286 286 286 285 285 284 284 284 283 283 283 283 283 284 285 285 284 283 283 282 282 281 280 280 279 279 279 278 278 277 277 277 277 277 277 277 276 276 276 276 277 277 277 277 277 277 277 277 277 277 277 277 277 278 278 278 279 279 279 280 280 280 280 280 279
291 291 292 292 293 293 294 294 294 294 293 292 291 289 287 286 286 286 286 286 285 285 285 284 284 284 283 283 283 283 282 282 283 285 285 284 283 283 282 282 281 281 280 279 278 278 278 277 277 276 276 276 276 276 276 276 276 275 275 275 276 276 276 276 277 277 277 277 277 277 277 276 277 277 277 277 278 278 278 279 279 279 280 280 279
289 289 290 290 291 291 292 293 293 293 293 293 291 290 288 286 286 285 285 285 284 284 284 284 283 283 283 282 282 282 282 283 284 284 284 283 283 282 282 281 280 280 279 279 278 277 277 276 276 276 276 276 276 276 275 275 275 275 275 275 275 275 275 275 275 276 276 277 277 277 277 276 276 276 276 277 277 277 278 278 278 279 279 279 279
288 288 288 288 289 289 290 291 291 292 292 292 292 291 289 287 286 285 285 284 284 283 283 283 282 282 282 282 281 281 282 283 284 284 283 282 282 281 280 280 280 279 279 278 278 277 276 276 276 275 275 275 275 275 275 275 275 275 275 274 274 274 274 274 274 274 275 275 275 276 276 276 276 276 276 276 276 277 277 277 277 278 278 278 278
288 288 288 288 288 288 288 288 289 290 291 291 292 291 290 288 286 285 284 283 283 283 282 282 282 281 281 281 281 281 282 283 283 283 282 281 280 280 280 280 280 279 279 278 277 276 276 275 275 275 275 275 275 275 275 274 274 274 274 274 274 274 274 273 273 273 273 274 274 275 275 275 275 276 276 275 276 276 276 276 277 277 277 277 277
287 287 287 287 287 287 287 287 287 288 289 290 290 291 291 290 288 285 284 283 283 282 282 282 281 281 281 281 280 281 282 283 283 282 281 280 280 280 280 280 279 279 278 277 276 276 275 275 275 275 275 275 274 274 274 274 274 274 274 274 274 274 273 273 273 273 273 273 273 273 274 274 275 275 275 275 275 275 275 275 276 276 277 277 277
287 287 287 287 287 287 287 287 287 287 287 288 289 289 289 289 288 286 284 283 282 282 282 281 281 281 280 280 280 281 282 282 281 280 280 280 280 280 280 279 279 278 277 276 276 275 275 275 274 274 274 274 274 274 274 274 274 274 273 273 273 273 273 273 273 273 273 273 273 272 273 273 273 274 274 275 275 275 275 275 275 275 276 276 276
286 286 287 287 287 287 287 287 287 287 287 287 287 288 288 288 287 286 284 282 282 281 281 280 280 280 280 280 280 281 281 281 280 280 280 280 280 279 279 278 277 276 276 275 275 275 274 274 274 274 274 274 274 274 274 274 273 273 273 273 273 273 273 273 273 273 273 273 273 272 272 272 272 273 273 273 274 274 274 274 274 275 275 275 276
286 286 286 286 286 286 286 286 286 286 286 286 286 287 287 287 286 285 283 281 280 280 280 279 279 279 279 279 280 280 280 280 280 280 280 280 279 278 278 277 276 275 275 275 274 274 274 274 274 274 274 274 274 273 273 273 273 273 273 273 273 272 272 272 272 272 272 272 272 272 272 272 272 272 272 272 273 273 274 274 274 274 274 274 275
286 286 286 286 286 286 286 286 286 285 285 285 286 286 285 285 285 283 281 280 279 279 278 278 278 278 278 279 279 280 279 279 279 279 279 278 278 277 277 276 275 275 274 274 274 274 274 274 274 273 273 273 273 273 273 273 273 273 273 272 272 272 272 272 272 272 272 272 272 272 272 272 272 272 272 272 272 272 273 273 273 274 274 274 274
Wind_Speed
31 30 28 28 28 28 28 29 29 29 28 28 27 26 26 23 19 18 21 23 22 20 20 19 17 14 12 10 9 7 5 4 3 3 3 4 5 7 9 10 11 13 14 15 16 16 17 17 18 18 18 18 19 20 22 23 26 28 30 32 33 33 35 36 41 49 53 52 53 56 57 58 59 59 61 63 64 65 65 63 62 61 59 58 57
27 26 25 25 25 26 27 28 28 28 28 29 28 26 24 20 19 21 24 24 22 21 20 19 16 14 12 11 9 7 6 5 3 2 3 4 6 7 9 10 12 13 14 15 16 16 17 18 18 19 19 19 21 23 25 26 28 30 31 33 34 34 35 37 40 46 53 55 55 57 58 59 60 60 61 61 62 63 64 63 61 59 58 57 56
24 24 24 24 25 25 25 26 27 28 29 29 28 25 22 21 22 25 25 24 23 22 20 18 16 14 13 11 9 8 6 5 3 2 3 5 6 7 9 10 12 13 14 15 16 17 18 19 20 20 20 21 23 25 27 29 31 32 33 34 35 36 36 37 40 44 50 55 56 58 59 60 61 61 60 59 59 59 60 60 57 56 57 56 55
23 23 23 24 25 26 26 27 28 29 29 27 25 23 23 24 26 26 26 25 24 23 21 18 16 15 13 11 10 8 6 4 3 3 4 5 6 8 10 11 12 13 15 16 17 18 19 20 21 22 22 23 25 27 29 31 33 34 35 36 37 38 39 39 40 42 46 52 56 57 58 59 60 59 58 58 58 56 55 55 55 54 55 55 54
24 24 24 24 25 25 26 27 28 27 27 25 24 24 25 27 28 27 26 26 25 23 20 19 17 15 14 12 10 8 6 5 4 4 4 5 7 8 10 11 13 14 15 17 18 19 20 21 22 23 24 26 27 29 30 32 34 35 36 38 38 40 41 41 41 42 44 49 53 56 57 57 57 58 55 54 56 55 53 54 54 55 56 57 55
25 25 25 25 26 26 27 27 27 26 25 25 25 27 28 29 29 28 27 26 24 22 20 19 18 16 14 12 10 8 6 5 5 4 5 6 7 9 10 11 13 15 16 18 19 20 21 22 23 24 26 28 29 31 33 34 36 37 38 39 40 41 41 41 42 43 44 47 49 52 54 54 54 56 54 51 52 53 53 54 55 55 55 58 59
24 24 25 25 27 28 28 27 26 25 25 27 28 29 30 30 29 28 27 25 23 22 21 19 18 16 14 12 10 8 7 6 5 5 5 6 7 8 10 11 13 15 17 18 19 21 22 23 24 26 28 30 31 33 35 36 37 38 39 40 41 41 42 43 43 43 44 46 46 48 50 51 51 52 53 51 50 51 51 54 57 57 56 57 59
24 24 25 26 27 28 27 26 25 26 27 29 30 31 31 30 29 29 27 25 23 22 21 19 18 17 15 12 10 9 8 6 5 5 6 6 7 8 10 11 13 15 17 19 20 22 23 24 25 27 29 31 33 34 36 37 38 39 40 40 41 41 42 42 42 43 44 45 46 46 48 50 50 49 51 52 52 53 52 53 57 59 59 58 58
24 25 25 26 27 27 27 26 27 28 29 30 31 31 31 30 30 29 27 26 24 22 21 19 18 16 14 12 11 10 8 7 6 6 6 6 7 8 10 12 13 15 17 19 21 22 24 25 26 28 30 32 33 34 36 37 38 39 40 40 40 40 41 41 42 42 44 45 46 45 46 49 49 47 49 50 51 53 53 53 56 58 59 59 59
25 26 26 27 27 28 28 28 29 30 31 32 32 31 31 31 30 29 28 26 25 23 22 20 19 16 14 13 12 10 8 7 6 6 6 6 8 9 11 13 14 16 18 20 21 23 24 26 27 29 31 32 33 34 35 36 37 38 38 38 39 39 40 41 41 41 41 43 44 42 42 46 48 46 47 48 49 51 52 53 54 55 57 59 60
27 27 27 27 28 29 30 30 31 31 32 32 32 32 32 32 31 29 28 26 25 24 22 21 19 17 15 14 12 10 9 8 7 6 6 7 8 10 12 14 15 17 19 21 23 24 25 26 28 30 31 32 33 34 35 36 36 37 37 37 37 37 37 38 39 39 38 39 41 40 37 41 46 46 45 47 48 49 50 50 51 53 56 57 58
28 28 28 28 29 30 31 31 32 33 33 33 33 33 33 32 31 29 28 27 25 24 23 21 19 17 16 14 12 11 9 8 7 7 7 7 9 10 12 14 16 18 20 22 24 26 27 28 29 30 32 33 34 34 35 36 36 36 37 37 36 35 34 33 33 34 35 35 38 40 37 39 44 45 44 45 46 47 48 48 49 50 53 54 55
29 29 29 29 30 30 31 32 33 34 34 34 34 34 33 32 31 30 28 27 26 25 23 22 20 18 16 14 12 11 10 8 8 7 7 8 9 11 13 15 17 19 21 23 25 26 28 29 30 31 32 33 34 35 35 36 37 36 37 36 36 35 33 31 29 29 30 31 34 38 39 38 40 42 42 41 42 44 46 47 47 48 50 51 51
31 31 31 30 31 31 32 33 34 35 35 35 35 35 34 33 32 30 29 28 27 25 24 22 21 19 16 14 13 11 10 9 8 7 7 8 10 12 14 16 18 21 23 24 26 27 29 30 31 32 33 33 34 35 36 37 37 37 37 37 36 35 34 33 31 30 30 29 31 35 37 35 37 40 39 37 37 40 42 44 46 46 46 47 48
32 31 32 32 32 33 33 34 35 36 36 36 36 35 35 34 33 31 30 28 27 25 24 23 21 19 16 15 13 11 10 9 8 8 8 9 11 13 15 17 19 22 24 25 27 28 29 30 32 33 33 33 34 35 36 37 37 38 38 37 37 37 35 34 33 33 33 31 29 32 34 35 35 36 35 34 34 36 38 41 42 41 42 45 49
34 33 33 33 33 34 35 36 37 36 36 37 37 37 36 35 33 32 30 29 28 26 25 23 21 19 17 15 14 12 11 9 8 8 9 10 12 14 16 19 21 23 24 26 27 28 29 30 31 32 33 33 34 34 35 36 37 37 38 38 38 38 36 34 34 34 33 32 31 32 34 35 35 33 31 30 31 32 35 37 37 37 40 44 50
36 35 34 34 35 35 36 36 37 37 38 38 38 38 37 35 34 32 31 30 29 27 26 24 21 19 17 16 14 12 11 9 9 9 9 11 13 15 18 20 22 23 25 26 27 27 28 30 31 32 32 33 33 33 33 34 36 37 38 39 40 40 38 38 37 35 32 31 32 33 34 35 34 33 30 28 27 29 32 34 35 37 39 41 46
37 36 35 35 35 36 37 37 38 38 39 39 39 38 37 36 34 33 31 30 29 28 26 24 22 20 18 17 15 13 11 9 9 9 10 12 14 16 19 21 23 24 26 26 26 27 28 29 30 31 32 32 32 32 32 33 35 36 37 39 40 41 41 41 42 41 38 36 35 35 35 35 34 34 33 31 30 30 30 31 33 35 37 38 40
37 36 35 35 36 36 38 38 39 39 39 39 39 38 37 36 34 33 31 30 29 28 26 24 22 20 19 17 15 13 10 9 9 10 11 13 15 17 20 22 24 25 26 26 27 27 28 29 29 30 30 31 31 32 32 32 33 34 35 37 39 41 41 41 42 42 43 42 41 40 39 38 37 36 36 36 36 35 32 30 30 31 33 35 34
34 36 35 35 36 38 39 39 39 40 40 39 39 38 37 36 35 33 32 31 30 28 26 24 23 21 20 18 15 13 10 9 9 10 12 13 16 19 21 23 25 26 27 27 27 27 28 28 29 29 29 30 30 31 30 30 31 32 33 34 36 38 39 39 38 38 40 41 41 41 41 40 39 37 37 38 38 38 35 32 29 28 29 31 30
32 34 35 36 37 39 39 40 40 40 40 40 39 38 37 36 35 34 32 31 30 29 27 25 24 22 20 18 15 12 10 9 10 11 13 14 17 20 23 25 26 27 27 27 27 28 28 28 28 29 29 29 29 29 29 29 29 30 31 31 32 32 33 35 36 36 37 38 39 40 40 39 39 37 38 39 38 38 37 33 29 27 25 27 28
30 33 35 37 38 39 40 41 41 41 41 40 39 38 37 36 34 33 32 32 31 29 28 26 25 23 21 18 15 12 10 11 12 13 14 16 19 22 24 26 27 27 27 27 27 28 28 28 29 29 29 29 28 28 28 28 28 29 29 28 28 29 30 31 33 34 36 37 38 39 39 38 38 38 39 39 37 36 35 32 29 27 23 22 23
28 31 34 37 38 39 41 41 41 41 41 41 40 39 38 36 35 34 33 32 31 30 29 27 25 23 21 18 15 12 12 13 14 15 15 18 21 24 25 26 27 27 27 27 27 27 28 29 29 29 29 28 28 27 27 28 28 28 27 27 27 27 28 30 31 33 34 35 37 38 37 36 37 37 38 37 36 34 33 30 28 26 23 21 19
26 29 32 35 37 39 40 41 41 41 41 41 40 39 38 37 36 35 34 33 32 31 29 28 26 23 20 18 15 14 14 16 17 16 17 20 23 25 25 26 27 26 26 26 26 27 28 28 29 29 28 28 28 27 27 27 27 27 26 26 27 27 28 29 30 31 33 34 36 36 35 33 34 35 34 33 32 31 29 27 24 23 23 21 20
23 26 29 32 35 37 39 40 41 41 42 42 41 40 39 37 37 36 35 35 34 32 30 28 26 23 21 18 15 15 18 20 19 18 20 23 24 25 25 26 26 26 25 24 25 26 27 27 28 28 28 28 28 27 27 26 26 26 25 26 26 27 28 28 29 30 32 34 35 34 32 31 31 31 30 29 29 29 29 27 23 21 20 18 18
20 23 26 29 32 35 38 40 41 42 42 42 41 40 39 38 37 37 36 36 35 33 31 28 26 24 21 17 16 20 23 23 21 21 23 25 25 24 25 25 25 24 24 23 24 25 26 26 27 27 27 27 27 27 26 26 25 24 25 25 26 27 27 27 29 30 32 33 33 32 30 29 29 28 27 26 26 27 29 29 26 23 21 18 18
19 21 23 26 29 32 35 38 40 42 42 43 42 41 39 38 38 38 38 37 35 33 31 29 27 24 20 18 21 26 27 24 22 24 25 25 24 24 24 24 23 23 23 23 23 24 25 26 26 26 26 26 25 25 25 24 24 24 24 25 25 26 26 26 28 29 30 31 31 29 27 27 28 27 25 25 26 27 28 28 27 24 22 20 21
18 19 21 23 26 29 33 37 39 41 43 43 43 43 41 40 40 39 38 37 35 33 32 30 27 24 20 22 28 31 29 25 25 26 26 24 24 24 23 23 23 23 22 22 23 24 25 25 25 25 25 24 24 24 23 23 24 24 24 25 25 25 25 26 27 27 28 29 29 27 26 26 27 25 23 24 26 27 27 26 24 22 21 21 22
17 18 20 22 24 26 30 34 38 41 43 43 43 43 42 41 40 39 37 35 34 32 30 28 26 24 25 29 33 32 28 27 27 27 25 23 23 23 22 22 23 22 22 22 23 24 24 24 24 24 24 24 24 24 24 25 25 25 25 25 26 26 26 26 27 27 27 28 27 26 25 26 26 24 22 23 25 26 27 25 22 20 20 20 22
16 18 19 21 22 25 28 32 36 40 42 43 44 43 42 41 40 39 37 35 34 32 30 29 28 28 31 35 34 31 29 29 28 26 24 23 23 22 22 22 23 22 21 21 22 23 23 23 23 23 24 25 25 25 26 26 27 26 26 26 26 26 26 26 26 26 26 26 26 24 23 24 24 23 22 23 25 25 25 24 22 20 19 20 21
16 18 19 20 21 23 26 30 34 38 41 43 43 43 43 42 41 39 38 36 35 34 33 31 31 33 36 36 33 31 30 29 27 25 24 23 22 22 21 22 23 21 20 21 22 22 22 22 22 23 24 25 24 25 26 26 27 27 27 26 26 26 26 26 25 25 25 25 24 22 22 22 23 21 21 23 24 24 23 22 20 19 19 20 20
15 16 17 19 20 22 25 28 32 37 41 43 44 44 44 44 42 41 40 39 38 37 36 34 35 37 36 34 32 31 30 28 27 25 24 23 22 21 21 22 22 20 20 21 22 21 21 21 22 23 23 23 23 23 24 25 26 26 26 26 26 25 25 25 24 24 23 23 22 21 20 21 21 20 20 21 22 23 22 21 19 18 18 19 19
14 15 16 18 20 22 25 27 31 35 39 42 44 44 44 44 44 42 41 41 40 40 39 38 38 37 35 33 33 32 30 28 27 26 24 23 22 21 21 22 21 19 20 21 21 20 20 20 21 22 23 22 22 22 23 24 24 25 25 25 25 24 23 23 22 21 21 21 20 19 18 20 21 19 18 19 21 21 20 20 19 18 17 18 18
14 15 15 17 19 21 24 26 30 33 37 41 43 44 45 45 44 43 43 43 43 43 42 40 39 37 36 35 33 32 30 29 28 26 24 23 22 21 21 21 20 19 20 20 19 19 19 19 20 21 21 21 20 21 21 22 23 23 23 23 23 22 22 21 20 19 19 19 18 17 16 18 20 19 17 18 19 19 17 18 18 17 16 17 17
14 15 16 17 19 21 23 25 28 32 36 40 43 44 45 45 44 44 44 44 44 44 42 40 38 37 37 35 33 32 31 30 29 27 25 23 21 21 21 21 20 20 20 19 18 17 18 18 20 20 19 19 19 19 20 20 21 22 22 22 21 21 21 21 20 19 18 18 18 16 15 16 18 18 16 16 18 17 16 16 16 16 16 16 15
15 16 17 18 19 21 23 25 27 30 34 38 41 44 44 44 45 44 44 44 44 43 41 39 38 37 36 34 33 33 32 31 29 27 25 22 21 21 21 21 20 20 20 19 18 17 17 18 19 19 18 17 17 18 19 19 19 20 20 21 21 20 20 20 20 19 18 18 17 16 15 14 16 16 15 14 15 16 15 14 14 14 15 14 13
17 17 18 18 20 21 23 25 27 29 32 36 40 43 44 45 45 45 45 44 44 43 41 40 39 38 37 36 34 34 33 31 29 27 25 22 21 21 22 21 21 21 20 18 17 16 16 17 18 17 16 16 16 17 17 18 18 18 18 18 19 19 19 19 19 19 18 18 17 17 15 14 14 14 14 13 13 13 14 13 12 11 12 12 12
18 19 19 20 21 22 23 25 27 29 32 34 38 41 44 45 45 45 45 45 44 43 43 42 41 41 40 37 35 34 33 31 29 27 25 22 22 22 22 21 21 21 19 17 16 15 15 16 17 16 14 14 15 15 15 16 16 16 16 16 16 16 17 17 17 17 17 17 17 17 16 15 14 13 13 13 13 12 12 12 11 9 9 9 10
18 19 20 22 23 23 24 25 27 29 31 34 37 40 43 45 45 46 46 46 45 45 45 44 43 42 40 37 35 35 33 31 29 27 24 23 23 23 23 23 22 21 18 17 16 15 15 15 15 13 12 13 14 14 14 15 15 15 15 15 15 15 15 15 15 16 16 16 16 16 16 15 14 13 12 12 12 12 12 12 11 9 7 6 7
18 19 21 22 23 25 26 26 27 29 31 33 36 39 42 44 45 46 46 46 47 47 46 46 44 42 39 37 35 34 33 31 28 26 24 24 24 24 24 24 23 20 18 17 16 15 15 15 13 11 11 12 12 13 13 14 14 14 14 15 15 15 15 15 15 16 16 16 16 16 15 15 14 13 12 12 12 12 12 13 12 11 8 6 5
20 20 21 22 23 25 27 28 29 30 31 33 35 38 41 43 44 45 46 47 47 47 47 45 43 40 38 36 35 33 32 30 28 27 26 26 26 25 24 24 23 21 19 18 16 15 15 14 12 11 10 10 11 12 12 13 13 13 13 14 15 15 15 15 16 16 16 16 16 16 16 16 15 15 14 13 13 12 12 13 13 13 11 8 6
21 21 22 23 24 25 26 28 29 30 32 33 35 37 40 42 43 45 46 46 47 47 46 45 42 40 38 36 35 34 33 31 30 29 28 27 26 25 25 24 23 21 19 17 15 15 14 13 11 11 10 10 10 11 12 12 13 13 13 13 14 15 15 15 15 16 16 16 16 16 16 16 16 16 15 15 15 14 13 13 13 13 13 12 9
21 22 22 23 24 25 26 27 28 30 32 34 35 36 38 40 42 44 45 45 45 45 45 43 41 39 37 37 36 36 35 33 31 30 29 28 26 26 26 25 24 22 19 17 16 15 14 13 12 11 11 10 11 11 12 12 12 12 13 13 14 15 15 15 16 16 16 16 16 16 16 16 16 16 16 16 16 16 15 14 14 13 13 13 12
22 22 23 23 24 25 26 27 28 29 31 32 34 36 37 39 41 43 44 44 44 44 43 41 40 38 38 38 38 38 37 34 31 30 29 28 27 26 26 25 24 22 20 18 17 15 14 13 12 12 11 11 11 11 12 13 13 13 13 13 14 14 15 15 16 17 17 16 16 16 17 16 16 17 17 17 17 17 16 16 16 14 13 13 13
24 24 24 25 25 26 26 27 28 29 30 31 33 35 36 37 39 41 42 43 43 43 42 41 40 39 39 39 39 38 36 32 30 29 29 28 27 26 26 25 24 22 21 19 18 16 15 14 12 12 12 12 11 12 12 13 14 14 15 15 15 15 15 16 16 17 17 18 18 17 17 17 17 17 17 17 17 17 17 18 18 17 15 13 13
27 27 27 27 27 27 27 27 28 29 30 31 32 34 35 36 37 38 40 42 42 42 42 41 40 40 40 39 39 37 34 31 30 31 30 28 27 27 26 26 25 23 22 21 19 17 16 14 13 12 12 11 11 12 12 13 14 15 16 16 16 17 17 17 17 18 18 18 19 18 18 18 17 17 17 17 17 17 17 18 18 18 16 14 13
30 30 30 30 30 29 29 29 29 30 30 31 32 33 34 35 36 37 38 39 40 41 41 41 40 40 40 39 38 36 33 32 32 32 30 29 28 28 28 27 25 24 22 21 20 18 17 15 14 13 12 11 11 11 12 13 13 14 16 16 17 17 18 18 18 18 19 19 19 19 19 19 18 18 17 17 17 17 17 17 17 17 16 15 13
31 31 31 31 31 31 31 30 31 31 31 31 31 32 33 34 35 36 37 37 38 38 39 39 39 39 40 39 38 36 34 34 33 32 31 30 30 29 29 27 25 24 23 22 21 20 18 16 15 14 13 12 11 11 11 12 13 14 15 16 16 17 18 18 19 19 19 19 20 20 20 20 19 19 18 18 17 17 17 16 16 16 15 14 12
32 32 32 32 32 32 32 31 31 32 32 32 32 33 33 34 34 35 35 35 35 35 36 37 38 38 39 38 37 36 35 34 33 32 32 32 31 30 28 27 25 24 23 22 22 21 19 17 16 15 13 12 12 11 11 12 12 13 14 15 16 17 18 18 19 19 20 20 20 20 20 20 20 19 19 19 18 18 17 17 16 16 15 13 12
34 34 33 34 34 33 33 32 32 32 33 33 33 34 34 34 34 34 33 33 33 33 34 35 36 37 38 37 37 36 35 34 34 33 33 32 31 30 28 27 26 25 24 23 23 22 20 18 17 16 15 13 13 12 12 12 12 13 14 15 16 17 18 18 19 20 20 21 21 21 21 20 20 20 19 19 19 19 18 17 17 16 15 15 14
36 35 35 35 35 34 34 34 33 33 33 33 33 33 33 33 33 33 32 32 31 31 32 34 35 36 37 37 36 36 35 35 34 34 33 32 31 30 29 27 26 25 24 24 23 22 21 19 18 17 16 14 14 14 13 13 13 14 15 15 16 17 18 19 19 20 21 21 22 22 22 21 21 20 20 20 20 20 19 18 17 17 17 16 16
Wind_Direction
235 235 233 230 227 223 222 222 223 224 222 224 228 227 227 229 225 216 205 197 194 193 193 192 191 192 191 193 197 201 211 226 248 276 305 326 335 337 333 331 330 329 327 325 324 323 321 320 319 319 318 317 316 316 318 320 320 321 321 320 321 321 320 318 316 314 316 319 321 322 324 325 325 326 327 327 326 326 326 327 327 326 326 326 327
229 227 224 221 221 218 218 219 220 220 219 220 224 225 227 226 216 206 198 194 194 194 193 193 192 192 193 197 201 206 217 228 242 272 312 326 330 331 330 330 328 324 323 322 321 321 319 318 317 316 316 316 316 316 317 318 318 319 320 319 320 321 320 320 318 317 317 319 321 322 323 325 326 327 329 329 329 327 326 327 327 326 326 327 329
223 220 216 214 215 214 215 216 216 218 219 221 223 224 224 217 206 199 196 195 194 193 193 193 192 194 197 201 205 210 218 225 238 274 306 318 324 328 327 325 322 321 320 320 320 319 319 317 315 314 314 314 315 315 316 318 318 319 320 320 320 321 321 321 321 320 319 319 321 323 324 325 326 328 330 330 330 329 329 328 329 328 327 327 328
217 217 213 212 214 212 212 215 217 220 221 222 222 219 214 205 198 195 195 196 195 194 193 193 195 199 201 204 208 212 216 223 241 273 296 314 322 323 323 321 320 321 320 320 321 319 318 316 314 313 313 313 314 315 315 317 318 319 320 320 320 321 322 323 323 323 322 321 322 324 325 326 327 329 331 330 330 331 331 330 330 330 328 328 327
213 215 215 215 217 215 215 218 220 221 221 219 216 210 202 197 195 195 195 196 196 196 195 194 198 201 203 206 210 211 215 225 244 273 295 311 318 319 321 323 322 323 322 321 320 319 316 315 314 313 313 313 314 315 316 317 318 319 320 321 322 322 323 324 325 324 324 325 325 325 326 328 328 330 333 333 332 333 333 333 331 330 329 328 327
212 215 217 217 218 219 220 221 221 220 217 211 205 200 196 195 196 195 195 196 197 197 197 199 201 203 205 208 209 211 217 228 246 274 295 307 314 319 322 324 324 324 323 321 319 318 316 315 314 314 314 315 316 317 318 319 320 321 322 323 323 324 325 326 326 327 328 328 327 327 328 330 330 332 335 336 334 333 334 333 330 329 330 329 327
214 216 217 217 218 219 219 218 217 214 208 202 198 196 195 196 196 196 195 196 198 199 201 203 204 204 207 209 209 212 220 231 252 274 292 305 313 320 324 325 326 324 322 321 318 317 316 315 315 315 316 317 318 319 321 321 321 323 324 325 326 326 327 328 329 330 331 329 329 329 330 331 332 333 336 336 335 334 333 331 329 329 331 329 327
213 214 215 215 215 214 213 212 209 204 200 197 196 196 196 196 196 197 196 196 199 203 205 206 207 207 208 208 209 215 223 236 257 272 288 304 312 320 325 325 324 323 321 320 318 316 316 316 316 316 317 319 320 321 322 322 323 325 326 327 328 328 329 330 331 332 332 330 330 330 331 332 333 334 335 336 335 333 332 330 326 326 327 327 325
211 211 211 210 209 207 205 203 201 199 198 197 197 197 197 197 198 198 198 198 200 203 206 208 209 210 209 208 210 217 227 240 257 271 286 302 313 321 325 325 324 323 321 319 318 316 316 316 316 317 318 320 321 322 323 324 325 326 328 328 329 330 331 332 334 334 333 332 332 332 331 331 333 333 333 334 332 329 329 327 324 323 324 324 322
207 206 206 204 203 201 201 200 200 199 199 199 199 198 199 200 200 200 200 202 203 205 207 209 210 210 209 209 214 221 230 242 256 273 287 303 316 322 324 326 326 325 323 319 317 316 316 316 317 318 319 320 321 322 323 324 326 327 328 329 331 332 333 333 334 334 333 332 331 330 327 328 332 331 328 329 329 326 326 325 323 323 323 322 320
203 202 201 201 201 201 202 202 202 201 201 200 201 201 201 201 201 202 202 204 205 207 209 210 210 209 209 213 219 224 234 244 256 273 289 305 317 322 325 327 328 326 323 319 317 317 316 317 318 318 319 319 320 322 323 325 326 327 329 331 333 334 334 333 333 333 332 330 328 327 323 324 328 329 327 328 327 325 323 322 322 323 323 321 318
202 202 202 203 205 205 205 205 204 203 202 202 202 203 203 203 203 204 205 206 208 209 210 211 210 210 211 215 221 227 236 246 258 274 293 309 317 321 325 327 327 325 322 319 318 318 317 318 318 318 319 320 321 323 324 325 327 328 331 333 334 334 333 332 332 331 330 327 326 326 325 323 325 326 326 326 324 322 322 322 323 322 319 318 316
206 207 207 209 209 209 209 207 206 205 204 204 204 204 204 204 205 206 207 208 210 211 211 211 211 212 214 218 224 230 238 249 261 277 297 310 316 322 325 327 326 323 321 319 318 317 317 317 318 319 321 322 323 324 325 326 328 331 333 334 334 333 332 332 331 330 328 326 325 327 328 325 322 321 322 322 322 322 321 321 321 319 317 317 317
212 213 213 213 213 212 211 209 208 208 207 206 206 206 206 206 207 208 209 210 212 212 212 212 212 214 216 220 226 232 240 250 263 279 297 308 315 322 325 325 324 322 321 319 317 317 318 318 319 321 322 324 325 326 328 329 330 332 333 335 335 334 334 335 334 332 332 331 327 325 326 323 318 318 322 324 322 321 320 318 317 317 317 316 312
218 218 218 218 216 214 213 211 210 209 209 209 208 207 207 207 208 209 210 212 213 213 213 214 214 216 218 221 227 233 241 251 263 279 295 307 316 321 323 324 324 321 319 318 317 317 318 319 321 322 324 327 328 329 331 331 332 333 334 335 336 336 337 336 334 334 336 335 329 324 324 324 323 324 325 324 321 318 316 314 314 316 315 311 310
223 222 222 221 219 217 215 213 212 211 211 211 210 209 209 209 210 211 211 212 212 212 213 214 216 217 219 223 228 234 242 252 265 281 298 309 316 321 323 323 322 320 318 317 316 317 319 320 322 324 326 329 330 332 333 333 333 334 334 336 337 338 338 335 334 337 338 336 332 328 327 329 331 330 326 323 322 318 314 313 315 317 315 314 318
226 226 225 224 222 219 218 216 215 214 214 214 213 211 210 210 211 213 213 213 212 212 214 215 216 218 220 225 229 234 242 253 268 285 301 312 317 321 323 322 320 318 316 315 315 317 319 321 324 326 328 330 331 333 335 334 335 336 336 337 339 338 336 334 336 339 338 335 333 332 332 335 336 334 331 329 326 322 320 321 323 323 321 321 324
229 229 228 227 225 222 221 220 218 217 217 216 215 213 212 212 213 214 215 215 215 214 215 216 217 219 222 226 230 234 242 255 273 291 305 314 318 320 320 319 318 316 314 313 315 318 321 324 326 327 329 331 332 335 337 337 337 338 339 339 338 336 335 336 338 338 336 334 333 334 337 339 339 337 336 335 334 334 335 333 329 327 325 324 324
235 233 232 230 227 226 224 222 221 220 219 219 217 216 215 214 215 215 215 215 215 216 217 217 219 221 224 226 230 235 243 257 277 295 307 314 317 317 316 315 314 312 311 312 316 320 323 326 328 329 330 332 334 337 339 339 340 341 340 338 336 335 337 338 338 336 333 333 333 334 337 339 339 338 337 338 340 343 345 340 333 331 328 325 328
242 238 236 232 229 228 226 224 223 221 221 220 218 217 217 217 217 216 215 214 215 216 218 218 220 223 225 227 230 235 245 262 283 298 308 313 314 313 312 311 310 310 311 314 317 321 324 326 328 330 332 334 337 339 341 341 341 340 338 336 336 337 337 337 335 333 332 332 333 335 337 338 339 339 340 342 344 345 347 345 341 339 333 328 331
244 241 237 234 231 230 227 226 224 222 221 220 219 218 218 219 219 219 218 217 217 217 218 219 221 223 225 228 231 235 248 270 288 300 306 308 308 307 306 306 307 308 311 315 318 321 324 327 329 331 334 337 340 342 343 342 340 338 337 337 337 336 335 333 332 332 332 333 335 338 339 339 339 341 344 346 348 347 347 347 346 343 340 336 335
245 243 239 236 233 230 228 226 224 222 221 220 219 219 219 219 220 220 220 220 220 220 220 221 222 223 225 227 230 236 256 279 293 300 301 300 299 300 300 302 304 307 311 314 318 322 325 327 330 333 337 341 343 344 342 340 339 338 339 338 337 335 333 331 331 332 334 336 338 340 341 341 342 344 347 348 349 348 347 347 346 344 345 347 343
248 246 242 239 236 232 230 227 225 223 222 220 220 221 221 221 221 221 221 222 221 221 222 222 223 224 226 226 231 245 268 287 295 296 293 291 292 294 297 300 303 306 310 314 318 322 326 329 332 336 339 342 343 342 340 340 339 340 341 339 338 335 332 331 332 335 338 340 341 343 344 345 346 347 348 349 348 346 346 347 345 343 347 351 351
251 249 246 243 239 236 232 229 227 225 223 221 221 221 222 222 222 222 222 223 223 223 223 223 224 225 225 227 238 260 283 294 294 287 283 284 287 291 295 298 301 305 309 314 319 324 328 332 334 337 339 340 340 340 340 340 341 342 342 340 338 335 333 334 336 338 340 342 344 346 347 347 348 349 350 349 346 343 345 348 347 345 348 353 357
255 252 250 247 243 239 235 231 228 225 223 223 222 222 223 223 223 224 224 224 224 224 223 224 225 225 225 232 251 278 294 295 286 277 276 280 284 289 293 296 299 304 308 314 321 326 330 332 334 336 337 338 338 339 340 340 341 341 341 339 337 336 336 337 338 340 342 344 346 347 347 348 351 352 351 349 346 344 346 350 352 350 349 354 3
258 255 253 250 245 241 237 232 229 226 224 223 224 224 226 226 226 227 227 226 226 225 224 226 226 224 227 243 270 290 294 287 275 269 273 278 281 286 290 294 298 302 307 315 323 327 329 331 332 334 335 336 337 337 337 338 338 339 339 338 338 338 338 339 341 342 344 345 345 347 348 350 353 353 352 351 350 350 350 350 353 355 355 1 13
260 258 256 253 248 244 239 235 231 227 225 224 224 224 226 227 228 229 228 228 227 225 225 226 225 225 236 261 282 289 286 276 265 265 270 274 278 283 288 292 297 301 307 317 324 326 327 329 330 332 334 334 333 333 333 335 336 337 338 339 339 339 339 341 343 344 343 344 345 346 349 352 353 353 354 354 355 356 354 352 354 358 2 10 20
264 263 260 257 253 248 243 238 233 230 227 226 225 226 226 227 228 229 230 231 230 230 230 228 227 232 250 270 280 281 276 265 260 263 267 272 277 281 286 292 297 301 309 318 323 324 325 326 328 330 331 329 328 328 331 333 336 338 339 339 340 341 341 343 344 344 344 344 345 348 351 354 354 353 355 357 358 358 357 357 358 2 8 16 22
265 263 261 258 255 250 246 241 236 232 229 228 227 228 228 229 230 230 231 231 232 233 233 232 233 243 260 272 275 273 264 256 257 262 266 271 276 281 287 293 297 302 311 318 320 320 321 324 326 328 327 325 326 328 331 335 338 340 341 340 341 342 343 344 345 345 345 345 347 351 354 355 354 353 355 358 0 0 360 1 4 8 14 22 24
263 262 261 260 256 252 248 243 238 234 231 229 229 229 229 229 230 230 230 231 231 232 232 232 237 251 264 269 267 259 252 252 257 261 265 271 276 281 287 293 296 302 310 315 315 316 320 323 325 326 325 325 327 330 334 337 339 340 341 342 343 344 344 345 346 346 345 346 348 352 355 355 353 353 355 359 1 3 4 5 8 11 18 25 27
263 264 264 263 261 256 251 246 241 236 232 230 230 230 230 230 229 228 229 229 230 231 231 234 243 255 261 259 253 248 248 253 257 261 265 270 274 280 287 291 295 302 309 310 311 315 320 323 324 325 324 324 327 331 335 338 339 340 341 342 343 344 345 345 347 347 345 347 350 352 355 355 353 352 357 1 2 4 8 11 13 16 21 25 25
269 270 270 269 265 260 255 250 244 239 235 231 230 230 231 231 230 229 229 230 231 232 233 237 245 251 251 248 245 246 250 254 257 261 265 268 273 279 285 289 294 300 304 306 309 315 320 322 323 323 322 323 327 332 335 337 339 340 341 342 343 345 346 346 347 347 346 347 350 351 353 355 352 351 356 1 3 6 11 15 18 20 24 26 25
272 272 271 269 266 262 258 253 248 242 238 235 233 232 233 234 234 234 233 233 233 234 235 239 244 246 244 244 245 247 250 253 258 261 264 268 273 277 281 287 292 297 300 304 309 315 320 320 319 319 320 323 327 332 335 337 339 341 342 342 344 345 346 346 346 347 346 347 349 351 354 355 351 349 354 0 4 9 13 17 20 21 23 26 26
275 274 272 269 266 263 260 256 252 247 242 239 237 236 237 237 238 238 238 238 238 238 239 241 244 244 244 245 247 249 251 255 258 260 262 266 269 273 279 285 289 293 297 302 308 314 317 316 315 316 318 321 325 330 334 337 340 341 342 343 344 344 345 345 346 347 348 348 349 352 357 358 353 349 351 357 2 7 12 17 21 23 23 25 27
275 274 273 271 268 265 262 258 255 251 247 243 240 239 239 240 241 242 242 243 245 246 246 247 247 247 247 248 249 251 253 255 257 259 261 264 266 271 278 283 287 292 295 300 306 311 311 310 311 313 315 318 324 330 334 337 340 341 341 342 343 345 345 345 347 350 350 347 348 353 359 0 356 352 350 352 356 0 5 14 22 24 23 25 28
271 270 270 269 268 267 265 261 257 254 251 248 244 242 242 242 243 244 245 246 247 249 250 251 251 250 250 250 250 251 253 254 256 258 260 261 265 271 277 282 285 289 292 296 302 305 305 306 307 308 311 318 325 330 333 336 339 341 341 342 343 345 345 345 347 350 350 348 348 352 356 359 358 354 348 347 351 354 356 5 18 24 22 22 28
276 273 271 269 268 267 265 262 259 256 253 250 247 245 244 244 244 245 246 246 248 250 250 251 251 251 251 250 249 250 251 252 253 255 256 258 264 271 276 279 282 284 287 291 294 295 297 300 302 303 309 318 324 328 332 334 336 339 341 343 343 344 344 345 346 347 348 348 348 350 352 355 357 354 348 342 341 344 347 353 6 18 20 19 23
281 276 273 270 269 267 266 264 262 259 255 252 249 247 246 246 246 246 247 248 249 250 251 252 252 252 252 252 250 250 251 251 252 254 256 259 265 271 274 276 278 279 281 283 284 286 291 295 297 300 308 317 321 325 329 332 333 336 340 342 343 342 342 343 344 344 345 346 347 347 349 350 351 351 347 340 333 330 333 340 350 3 10 12 14
283 279 274 270 267 266 265 264 263 261 259 256 253 250 249 248 248 249 249 249 250 251 251 252 252 253 253 252 251 250 252 253 253 255 257 261 267 271 273 274 274 274 276 278 279 282 287 291 293 298 307 313 317 323 327 330 333 335 337 340 342 342 340 341 343 343 343 345 345 344 345 346 346 345 344 340 331 323 319 322 330 340 350 357 359
282 281 278 274 270 267 264 262 261 260 259 258 256 255 253 252 252 252 251 251 251 252 252 253 253 254 254 253 252 253 254 254 254 254 257 262 267 270 270 270 270 271 274 276 276 279 283 287 289 294 303 309 315 322 327 330 334 335 336 338 340 341 341 342 343 343 343 343 343 343 342 342 341 340 338 336 331 324 316 311 310 313 320 329 337
283 283 281 279 276 272 268 265 263 261 259 259 258 257 256 255 255 254 254 253 253 254 254 255 255 255 255 253 252 253 253 251 250 252 257 263 266 267 267 267 267 269 271 271 272 275 279 281 284 289 296 305 313 320 325 329 333 336 338 338 339 340 341 342 342 343 343 341 340 340 340 340 340 339 336 333 330 326 320 311 303 299 299 300 307
287 286 285 284 281 278 276 273 269 265 263 261 259 259 259 258 256 255 255 255 255 255 256 256 255 254 253 252 250 250 249 247 248 253 259 263 263 262 263 264 264 265 266 265 266 269 272 274 278 283 291 300 308 315 320 324 329 335 338 340 340 339 340 341 341 341 341 340 338 337 337 338 338 338 336 334 330 326 321 314 304 296 290 287 286
292 291 290 289 287 286 284 281 276 272 269 265 263 262 262 261 260 259 258 257 256 256 256 256 256 254 252 250 248 247 246 246 249 255 259 260 259 260 260 260 260 260 260 259 260 262 265 268 272 276 284 293 300 307 312 316 322 329 333 336 339 339 339 340 340 338 338 339 338 337 336 336 335 335 334 334 332 330 326 319 310 299 290 282 276
299 298 296 294 293 291 289 287 284 281 277 272 268 265 263 262 262 261 259 258 257 257 257 256 255 253 251 248 247 246 246 247 251 257 258 258 257 256 256 256 256 256 256 255 255 256 258 261 264 270 279 287 293 300 306 310 316 322 326 330 333 334 335 337 337 336 337 337 337 336 336 335 333 333 332 332 331 331 330 326 318 307 294 282 273
302 301 300 299 297 295 293 291 288 285 282 279 274 270 266 263 262 261 260 259 257 256 255 255 252 250 248 247 246 246 247 250 254 257 256 254 252 251 251 252 252 253 253 254 253 253 253 254 257 263 271 280 288 296 303 308 314 319 323 326 327 328 329 331 331 332 333 334 334 334 334 333 332 331 331 330 330 329 329 330 325 316 302 288 274
301 301 300 299 297 295 294 291 288 286 284 281 279 276 273 268 264 262 261 260 258 257 255 254 252 250 248 247 246 247 248 252 255 254 251 248 247 246 248 249 250 251 253 253 252 252 252 252 255 259 265 274 284 293 300 307 313 317 320 323 324 325 326 327 327 327 328 328 329 330 330 329 330 329 328 328 327 325 324 326 326 321 311 296 279
299 299 298 297 296 295 293 290 288 286 283 281 280 278 277 273 270 266 262 260 259 258 257 255 253 252 250 249 248 248 251 253 253 250 246 244 244 245 246 248 248 249 249 250 251 252 253 254 256 259 263 270 279 289 297 304 310 315 317 319 321 323 325 325 325 325 324 322 323 324 324 325 326 325 325 325 324 322 320 320 321 321 316 303 286
298 298 297 296 295 293 292 290 288 286 284 282 280 278 276 274 272 269 266 263 261 259 258 257 254 252 250 249 248 248 249 250 247 243 242 243 244 245 245 245 245 245 245 246 249 251 253 254 257 260 263 269 277 284 292 300 306 310 313 315 318 321 322 323 324 324 322 320 319 318 318 319 321 321 320 319 319 318 317 315 314 315 314 307 292
297 296 295 295 294 292 291 289 287 285 284 282 280 278 275 273 271 269 266 264 261 258 258 257 254 251 250 248 247 247 248 246 243 242 243 245 244 243 243 243 242 241 241 244 247 249 251 254 257 260 264 270 276 282 289 295 302 306 309 312 316 318 319 320 322 322 321 321 320 318 315 314 314 314 315 315 314 313 313 312 310 308 307 303 295
296 295 294 293 292 291 290 288 286 285 283 281 280 279 277 274 272 269 265 262 259 257 255 254 252 250 248 247 247 248 248 245 244 245 246 245 243 241 241 240 239 239 240 242 245 247 250 253 256 260 264 269 274 281 286 292 297 302 305 309 313 314 316 318 319 320 320 320 320 320 317 314 311 309 309 309 308 308 307 307 306 304 300 297 292
293 292 292 291 290 289 288 287 285 284 283 281 280 279 278 276 273 269 265 261 258 256 254 252 251 248 247 247 248 248 246 245 245 246 245 243 241 241 240 239 238 238 240 241 243 245 249 252 255 259 263 268 273 279 284 288 294 298 302 306 309 311 313 315 316 317 318 318 319 319 319 317 313 310 306 303 302 303 303 302 301 300 298 294 291